Vorticity
6 5 7 5 6 5 6 6 5 6 6 5 6 8 10 8 8 -1 3 2 1 -1 6 -4 17 10 7
8 11 8 8 9 9 7 7 6 5 8 2 16 9 4 17 4 -4 0 -2 12 21 19 -8 26 -1 4
0 8 12 9 16 8 14 12 9 7 8 5 8 3 12 3 -2 -4 3 1 7 23 15 -10 11 13 0
6 13 3 9 4 7 5 4 3 1 8 7 5 3 1 3 -1 16 7 12 24 10 30 9 18 11 10
1 6 3 -1 7 16 0 3 -1 3 9 18 4 9 2 5 1 5 4 -1 -8 7 3 16 12 11 14
-4 7 4 17 -5 15 6 7 -5 12 9 11 0 20 6 2 13 -4 -12 14 4 19 5 5 -3 8 16
8 24 2 -6 31 0 2 1 7 30 9 21 29 3 -14 19 14 -6 12 6 25 11 9 4 -3 4 10
11 -7 26 1 11 12 2 4 10 -2 -1 6 0 16 -2 26 9 31 26 10 1 18 7 19 16 11 -4
47 2 24 5 25 -2 11 1 4 20 -3 12 23 18 7 8 3 10 8 10 10 11 14 12 5 23 0
-6 15 -2 22 20 20 26 23 19 9 9 10 12 12 13 13 11 9 8 9 11 11 13 21 5 13 5
14 15 16 14 13 10 9 7 6 4 4 4 4 5 5 9 8 10 13 11 13 14 7 7 15 8 11
6 5 3 3 3 5 6 7 9 4 3 4 3 11 15 7 5 3 8 10 5 13 13 11 13 15 17
7 8 11 15 14 12 12 15 16 22 21 10 9 9 10 16 28 31 23 15 15 12 12 18 20 18 14
15 14 13 13 13 14 15 15 13 14 15 17 17 19 14 12 12 8 11 7 13 17 28 24 19 16 17
11 11 11 11 11 11 11 11 12 15 14 14 15 16 17 19 15 10 4 8 -3 6 20 24 20 19 13
12 12 13 13 13 12 13 13 13 13 13 14 17 17 17 13 14 14 11 11 15 13 12 21 18 13 15
14 13 13 13 14 15 16 16 16 16 14 14 14 17 18 20 16 18 10 10 9 11 15 17 17 14 10
Height
3126 3127 3125 3124 3123 3120 3119 3117 3115 3112 3109 3106 3104 3101 3097 3094 3092 3089 3086 3082 3078 3074 3069 3063 3060 3055 3050
3118 3117 3116 3115 3112 3111 3109 3108 3105 3103 3100 3096 3094 3091 3088 3085 3083 3080 3077 3072 3068 3064 3060 3054 3051 3046 3041
3105 3108 3106 3105 3103 3101 3099 3097 3095 3093 3091 3087 3085 3081 3078 3077 3074 3070 3067 3061 3056 3053 3049 3045 3041 3037 3032
3098 3097 3097 3096 3094 3092 3089 3088 3085 3083 3080 3076 3074 3071 3067 3066 3062 3059 3056 3051 3046 3042 3037 3034 3031 3027 3023
3088 3086 3084 3083 3084 3082 3078 3076 3071 3070 3068 3066 3064 3060 3057 3054 3050 3048 3044 3040 3036 3032 3028 3025 3020 3017 3014
3078 3074 3073 3070 3066 3068 3066 3062 3055 3057 3054 3051 3050 3047 3046 3043 3040 3035 3032 3028 3024 3021 3018 3014 3011 3007 3004
3065 3064 3058 3057 3055 3049 3046 3047 3044 3039 3037 3036 3033 3033 3033 3029 3026 3023 3019 3016 3013 3010 3008 3005 3002 2998 2994
3053 3050 3047 3044 3041 3038 3034 3030 3028 3027 3023 3020 3022 3021 3020 3015 3013 3009 3007 3004 3002 2999 2996 2993 2990 2986 2982
3040 3037 3035 3032 3028 3025 3022 3018 3013 3013 3011 3007 3006 3005 3004 3001 3000 2998 2995 2993 2990 2987 2984 2981 2978 2974 2971
3030 3025 3023 3020 3015 3011 3009 3005 3001 2999 3000 2998 2995 2992 2989 2988 2987 2985 2982 2980 2977 2974 2971 2968 2965 2961 2959
3014 3013 3011 3009 3006 3002 2998 2994 2992 2990 2989 2984 2982 2980 2977 2974 2972 2970 2968 2966 2964 2961 2959 2956 2952 2949 2947
3000 2998 2997 2996 2994 2990 2987 2983 2980 2978 2975 2971 2968 2966 2963 2960 2958 2957 2955 2952 2950 2948 2945 2943 2939 2936 2935
2986 2984 2981 2978 2975 2973 2971 2968 2965 2962 2959 2955 2953 2950 2948 2945 2944 2943 2941 2940 2937 2935 2933 2931 2928 2926 2925
2971 2968 2965 2963 2960 2956 2954 2951 2948 2948 2945 2942 2938 2936 2933 2932 2931 2931 2929 2928 2927 2925 2921 2919 2919 2918 2917
2958 2955 2953 2949 2946 2943 2940 2937 2934 2932 2931 2929 2925 2922 2920 2918 2918 2917 2918 2917 2916 2914 2911 2910 2909 2908 2908
2946 2943 2939 2935 2932 2930 2927 2923 2920 2919 2916 2914 2911 2908 2906 2905 2905 2906 2906 2905 2904 2903 2901 2900 2900 2900 2900
2933 2930 2926 2923 2919 2916 2913 2910 2908 2905 2903 2900 2898 2896 2893 2892 2894 2895 2895 2894 2892 2891 2891 2892 2892 2893 2893